Location: Bailleul
(50.3375°N, 2.8513°E)
Time: 20:15:43
(UTC+00:00)

Ariane Rocket - Pass Details

Date: 19 April 2021
Orbit: 760 x 770 km, 98.7° (Epoch: 18 May)

Event Time Altitude Azimuth Distance (km) Brightness Sun altitude
Exits shadow 19:30:10 - 156° (SSE) 3,178 5.7 -6.8°
Reaches altitude 10° 19:32:23 10° 155° (SSE) 2,291 5.0 -7.1°
Maximum altitude 19:37:24 72° 72° (ENE) 803 3.0 -7.8°
Drops below altitude 10° 19:42:27 10° 348° (NNW) 2,305 6.1 -8.5°
Sets 19:44:46 0° 347° (NNW) 3,236 6.9 -8.8°
